Time,TemperatureF,DewpointF,PressureIn,WindDirection,WindDirectionDegrees,WindSpeedMPH,WindSpeedGustMPH,Humidity,HourlyPrecipIn,Conditions,Clouds,dailyrainin,SoftwareType,DateUTC
2013-01-30 00:31:00,43.0,41.0,29.99,ENE,77,0.0,3.0,94,0.00,,,0.00,weatherlink.com 1.10,2013-01-30 05:31:00,
2013-01-30 00:35:00,42.9,41.0,29.99,NE,53,2.0,3.0,94,0.00,,,0.00,weatherlink.com 1.10,2013-01-30 05:35:00,
2013-01-30 00:50:00,43.0,42.0,29.99,ENE,60,2.0,2.0,95,0.00,,,0.00,weatherlink.com 1.10,2013-01-30 05:50:00,
2013-01-30 01:05:00,43.3,42.0,29.98,East,94,0.0,3.0,95,0.00,,,0.00,weatherlink.com 1.10,2013-01-30 06:05:00,
2013-01-30 01:20:00,43.2,42.0,29.98,East,93,0.0,3.0,95,0.00,,,0.00,weatherlink.com 1.10,2013-01-30 06:20:00,
2013-01-30 01:35:00,43.0,42.0,29.96,East,85,0.0,3.0,96,0.00,,,0.00,weatherlink.com 1.10,2013-01-30 06:35:00,
2013-01-30 01:50:00,43.0,42.0,29.96,East,89,0.0,3.0,96,0.00,,,0.00,weatherlink.com 1.10,2013-01-30 06:50:00,
2013-01-30 02:05:00,43.4,42.0,29.95,East,81,1.0,2.0,96,0.00,,,0.00,weatherlink.com 1.10,2013-01-30 07:05:00,
2013-01-30 02:20:00,43.6,43.0,29.95,ENE,74,0.0,3.0,96,0.00,,,0.00,weatherlink.com 1.10,2013-01-30 07:20:00,
2013-01-30 02:35:00,42.9,42.0,29.94,East,80,0.0,2.0,96,0.00,,,0.00,weatherlink.com 1.10,2013-01-30 07:35:00,
2013-01-30 02:50:00,42.7,42.0,29.93,ENE,61,3.0,4.0,96,0.00,,,0.00,weatherlink.com 1.10,2013-01-30 07:50:00,
2013-01-30 03:06:00,43.6,43.0,29.93,East,90,0.0,3.0,97,0.00,,,0.00,weatherlink.com 1.10,2013-01-30 08:06:00,
2013-01-30 03:21:00,43.4,42.0,29.91,ESE,109,0.0,1.0,96,0.00,,,0.00,weatherlink.com 1.10,2013-01-30 08:21:00,
2013-01-30 03:36:00,43.1,42.0,29.90,ENE,70,0.0,2.0,97,0.00,,,0.00,weatherlink.com 1.10,2013-01-30 08:36:00,
2013-01-30 03:51:00,42.8,42.0,29.90,ENE,70,0.0,0.0,97,0.00,,,0.00,weatherlink.com 1.10,2013-01-30 08:51:00,
2013-01-30 04:06:00,42.8,42.0,29.89,ENE,70,0.0,1.0,97,0.00,,,0.00,weatherlink.com 1.10,2013-01-30 09:06:00,
2013-01-30 04:21:00,43.0,42.0,29.89,ENE,67,0.0,1.0,97,0.00,,,0.00,weatherlink.com 1.10,2013-01-30 09:21:00,
2013-01-30 04:36:00,43.6,43.0,29.90,East,101,0.0,1.0,97,0.00,,,0.00,weatherlink.com 1.10,2013-01-30 09:36:00,
2013-01-30 04:51:00,43.8,43.0,29.88,South,171,0.0,1.0,97,0.00,,,0.00,weatherlink.com 1.10,2013-01-30 09:51:00,
2013-01-30 05:06:00,44.0,44.0,29.87,South,188,0.0,3.0,98,0.00,,,0.00,weatherlink.com 1.10,2013-01-30 10:06:00,
2013-01-30 05:21:00,44.2,43.0,29.87,East,90,0.0,0.0,97,0.00,,,0.00,weatherlink.com 1.10,2013-01-30 10:21:00,
2013-01-30 05:36:00,43.9,43.0,29.87,South,169,0.0,0.0,98,0.00,,,0.00,weatherlink.com 1.10,2013-01-30 10:36:00,
2013-01-30 05:51:00,43.9,43.0,29.85,SE,139,0.0,1.0,98,0.00,,,0.00,weatherlink.com 1.10,2013-01-30 10:51:00,
2013-01-30 06:06:00,44.4,44.0,29.85,East,85,0.0,1.0,98,0.00,,,0.00,weatherlink.com 1.10,2013-01-30 11:06:00,
2013-01-30 06:21:00,44.5,44.0,29.85,East,90,0.0,2.0,98,0.00,,,0.00,weatherlink.com 1.10,2013-01-30 11:21:00,
2013-01-30 06:36:00,44.9,44.0,29.85,East,90,0.0,0.0,98,0.00,,,0.00,weatherlink.com 1.10,2013-01-30 11:36:00,
2013-01-30 06:51:00,46.1,46.0,29.84,SSE,151,0.0,2.0,98,0.00,,,0.00,weatherlink.com 1.10,2013-01-30 11:51:00,
2013-01-30 07:06:00,46.6,46.0,29.84,WSW,258,0.0,2.0,98,0.00,,,0.00,weatherlink.com 1.10,2013-01-30 12:06:00,
2013-01-30 07:21:00,47.4,47.0,29.83,SW,218,1.0,4.0,98,0.00,,,0.00,weatherlink.com 1.10,2013-01-30 12:21:00,
2013-01-30 07:37:00,48.0,48.0,29.83,South,177,0.0,5.0,98,0.00,,,0.00,weatherlink.com 1.10,2013-01-30 12:37:00,
2013-01-30 07:52:00,48.4,48.0,29.82,NW,304,0.0,5.0,98,0.00,,,0.00,weatherlink.com 1.10,2013-01-30 12:52:00,
2013-01-30 08:07:00,48.9,48.0,29.81,West,272,1.0,5.0,98,0.00,,,0.00,weatherlink.com 1.10,2013-01-30 13:07:00,
2013-01-30 08:22:00,49.9,49.0,29.81,South,182,0.0,5.0,98,0.00,,,0.00,weatherlink.com 1.10,2013-01-30 13:22:00,
2013-01-30 08:37:00,50.5,50.0,29.80,SW,230,0.0,6.0,98,0.00,,,0.00,weatherlink.com 1.10,2013-01-30 13:37:00,
2013-01-30 08:52:00,51.4,51.0,29.79,SSW,198,1.0,5.0,98,0.00,,,0.00,weatherlink.com 1.10,2013-01-30 13:52:00,
2013-01-30 09:07:00,53.4,53.0,29.79,SSW,202,4.0,9.0,97,0.00,,,0.00,weatherlink.com 1.10,2013-01-30 14:07:00,
2013-01-30 09:22:00,54.1,53.0,29.78,NW,304,1.0,6.0,96,0.00,,,0.00,weatherlink.com 1.10,2013-01-30 14:22:00,
2013-01-30 09:37:00,54.0,53.0,29.77,SSW,196,1.0,6.0,95,0.00,,,0.00,weatherlink.com 1.10,2013-01-30 14:37:00,
2013-01-30 09:52:00,54.3,53.0,29.76,North,355,0.0,10.0,95,0.00,,,0.00,weatherlink.com 1.10,2013-01-30 14:52:00,
2013-01-30 10:07:00,55.2,54.0,29.76,South,171,5.0,9.0,94,0.00,,,0.00,weatherlink.com 1.10,2013-01-30 15:07:00,
2013-01-30 10:22:00,55.8,54.0,29.74,East,84,3.0,12.0,94,0.00,,,0.00,weatherlink.com 1.10,2013-01-30 15:22:00,
2013-01-30 10:38:00,56.2,54.0,29.74,West,267,0.0,8.0,93,0.00,,,0.00,weatherlink.com 1.10,2013-01-30 15:38:00,
2013-01-30 10:53:00,56.3,54.0,29.73,ENE,65,2.0,10.0,93,0.00,,,0.00,weatherlink.com 1.10,2013-01-30 15:53:00,
2013-01-30 11:08:00,56.7,55.0,29.72,ESE,103,3.0,8.0,93,0.00,,,0.00,weatherlink.com 1.10,2013-01-30 16:08:00,
2013-01-30 11:23:00,56.8,55.0,29.73,South,189,3.0,9.0,93,0.00,,,0.00,weatherlink.com 1.10,2013-01-30 16:23:00,
2013-01-30 11:38:00,57.1,55.0,29.71,NE,42,1.0,7.0,93,0.00,,,0.00,weatherlink.com 1.10,2013-01-30 16:38:00,
2013-01-30 11:53:00,57.8,56.0,29.69,SSW,207,3.0,8.0,92,0.00,,,0.00,weatherlink.com 1.10,2013-01-30 16:53:00,
2013-01-30 12:08:00,58.8,56.0,29.67,West,271,1.0,7.0,91,0.00,,,0.00,weatherlink.com 1.10,2013-01-30 17:08:00,
2013-01-30 12:23:00,59.9,57.0,29.66,SSW,202,2.0,9.0,89,0.00,,,0.00,weatherlink.com 1.10,2013-01-30 17:23:00,
2013-01-30 12:38:00,59.4,56.0,29.66,NNW,332,1.0,8.0,89,0.00,,,0.00,weatherlink.com 1.10,2013-01-30 17:38:00,
2013-01-30 12:53:00,58.9,56.0,29.64,South,187,4.0,9.0,90,0.00,,,0.00,weatherlink.com 1.10,2013-01-30 17:53:00,
2013-01-30 13:08:00,59.2,56.0,29.62,NW,321,2.0,10.0,90,0.00,,,0.00,weatherlink.com 1.10,2013-01-30 18:08:00,
2013-01-30 13:23:00,59.5,56.0,29.63,SE,142,1.0,10.0,89,0.00,,,0.00,weatherlink.com 1.10,2013-01-30 18:23:00,
2013-01-30 13:38:00,59.7,57.0,29.61,SSW,213,0.0,11.0,89,0.00,,,0.00,weatherlink.com 1.10,2013-01-30 18:38:00,
2013-01-30 13:53:00,59.8,57.0,29.60,South,178,4.0,6.0,89,0.00,,,0.00,weatherlink.com 1.10,2013-01-30 18:53:00,
2013-01-30 14:08:00,60.2,57.0,29.59,NNE,29,2.0,7.0,89,0.00,,,0.00,weatherlink.com 1.10,2013-01-30 19:08:00,
2013-01-30 14:23:00,61.5,58.0,29.59,South,181,2.0,13.0,87,0.00,,,0.00,weatherlink.com 1.10,2013-01-30 19:23:00,
2013-01-30 14:39:00,62.2,58.0,29.59,SSE,153,1.0,10.0,86,0.00,,,0.00,weatherlink.com 1.10,2013-01-30 19:39:00,
2013-01-30 14:54:00,62.8,58.0,29.59,SSE,150,2.0,12.0,85,0.00,,,0.00,weatherlink.com 1.10,2013-01-30 19:54:00,
2013-01-30 15:09:00,62.3,58.0,29.64,WSW,250,10.0,10.0,86,0.00,,,0.00,weatherlink.com 1.10,2013-01-30 20:09:00,
2013-01-30 15:24:00,57.5,55.0,29.63,NW,307,1.0,12.0,92,0.21,,,0.21,weatherlink.com 1.10,2013-01-30 20:24:00,
2013-01-30 15:39:00,57.1,55.0,29.63,WNW,297,0.0,2.0,94,0.23,,,0.23,weatherlink.com 1.10,2013-01-30 20:39:00,
2013-01-30 15:54:00,56.8,56.0,29.63,West,275,0.0,1.0,96,0.25,,,0.25,weatherlink.com 1.10,2013-01-30 20:54:00,
2013-01-30 16:09:00,56.7,56.0,29.64,SSW,195,0.0,1.0,96,0.27,,,0.27,weatherlink.com 1.10,2013-01-30 21:09:00,
2013-01-30 16:24:00,56.3,56.0,29.63,SSW,195,0.0,1.0,97,0.08,,,0.29,weatherlink.com 1.10,2013-01-30 21:24:00,
2013-01-30 16:39:00,56.0,55.0,29.63,SSW,195,0.0,1.0,97,0.08,,,0.31,weatherlink.com 1.10,2013-01-30 21:39:00,
2013-01-30 16:54:00,55.7,55.0,29.61,ENE,65,0.0,2.0,97,0.08,,,0.33,weatherlink.com 1.10,2013-01-30 21:54:00,
2013-01-30 17:09:00,55.6,55.0,29.61,South,169,0.0,2.0,98,0.08,,,0.35,weatherlink.com 1.10,2013-01-30 22:09:00,
2013-01-30 17:24:00,55.5,55.0,29.61,ENE,78,0.0,1.0,98,0.08,,,0.37,weatherlink.com 1.10,2013-01-30 22:24:00,
2013-01-30 17:39:00,55.4,55.0,29.61,SSW,196,0.0,2.0,98,0.09,,,0.40,weatherlink.com 1.10,2013-01-30 22:39:00,
2013-01-30 17:54:00,55.3,55.0,29.60,NNE,31,0.0,4.0,98,0.08,,,0.41,weatherlink.com 1.10,2013-01-30 22:54:00,
2013-01-30 18:09:00,55.2,55.0,29.60,SSW,202,0.0,2.0,98,0.08,,,0.43,weatherlink.com 1.10,2013-01-30 23:09:00,
2013-01-30 18:24:00,55.0,55.0,29.59,West,281,0.0,1.0,98,0.09,,,0.46,weatherlink.com 1.10,2013-01-30 23:24:00,
2013-01-30 18:39:00,54.9,54.0,29.59,WSW,243,0.0,1.0,98,0.10,,,0.50,weatherlink.com 1.10,2013-01-30 23:39:00,
2013-01-30 18:54:00,54.8,55.0,29.58,South,173,1.0,3.0,99,0.13,,,0.54,weatherlink.com 1.10,2013-01-30 23:54:00,
2013-01-30 19:09:00,54.7,54.0,29.55,East,90,0.0,4.0,98,0.15,,,0.58,weatherlink.com 1.10,2013-01-31 00:09:00,
2013-01-30 19:24:00,54.8,54.0,29.55,SSE,163,0.0,2.0,98,0.17,,,0.64,weatherlink.com 1.10,2013-01-31 00:24:00,
2013-01-30 19:39:00,54.8,55.0,29.54,SSE,158,0.0,2.0,99,0.20,,,0.70,weatherlink.com 1.10,2013-01-31 00:39:00,
2013-01-30 19:54:00,54.6,54.0,29.54,SSW,196,0.0,5.0,99,0.25,,,0.79,weatherlink.com 1.10,2013-01-31 00:54:00,
2013-01-30 20:09:00,54.4,54.0,29.52,SE,144,0.0,5.0,99,0.29,,,0.88,weatherlink.com 1.10,2013-01-31 01:09:00,
2013-01-30 20:24:00,54.3,54.0,29.52,NE,46,0.0,2.0,99,0.27,,,0.92,weatherlink.com 1.10,2013-01-31 01:24:00,
2013-01-30 20:40:00,54.2,54.0,29.52,SW,234,0.0,1.0,99,0.27,,,0.98,weatherlink.com 1.10,2013-01-31 01:40:00,
2013-01-30 20:55:00,54.2,54.0,29.49,WNW,293,0.0,2.0,99,0.24,,,1.03,weatherlink.com 1.10,2013-01-31 01:55:00,
2013-01-30 21:10:00,54.1,54.0,29.47,ESE,111,2.0,2.0,99,0.16,,,1.05,weatherlink.com 1.10,2013-01-31 02:10:00,
2013-01-30 21:25:00,53.9,54.0,29.46,WNW,292,0.0,4.0,99,0.13,,,1.06,weatherlink.com 1.10,2013-01-31 02:25:00,
2013-01-30 21:40:00,53.9,54.0,29.45,East,94,1.0,2.0,99,0.09,,,1.08,weatherlink.com 1.10,2013-01-31 02:40:00,
2013-01-30 21:55:00,53.8,54.0,29.43,ENE,77,0.0,4.0,99,0.06,,,1.09,weatherlink.com 1.10,2013-01-31 02:55:00,
2013-01-30 22:10:00,53.8,54.0,29.42,WNW,292,1.0,3.0,99,0.06,,,1.11,weatherlink.com 1.10,2013-01-31 03:10:00,
2013-01-30 22:25:00,53.6,53.0,29.38,SE,124,0.0,2.0,99,0.07,,,1.13,weatherlink.com 1.10,2013-01-31 03:25:00,
2013-01-30 22:40:00,53.7,54.0,29.39,South,188,1.0,5.0,99,0.08,,,1.16,weatherlink.com 1.10,2013-01-31 03:40:00,
2013-01-30 22:55:00,53.6,53.0,29.35,WNW,302,1.0,3.0,99,0.11,,,1.20,weatherlink.com 1.10,2013-01-31 03:55:00,
2013-01-30 23:10:00,53.7,54.0,29.37,South,183,1.0,2.0,99,0.18,,,1.29,weatherlink.com 1.10,2013-01-31 04:10:00,
2013-01-30 23:25:00,53.7,54.0,29.36,SE,144,0.0,2.0,99,0.27,,,1.40,weatherlink.com 1.10,2013-01-31 04:25:00,
2013-01-30 23:40:00,53.6,53.0,29.32,SSW,213,0.0,2.0,99,0.33,,,1.49,weatherlink.com 1.10,2013-01-31 04:40:00,
2013-01-30 23:55:00,53.6,53.0,29.29,North,355,0.0,2.0,99,0.34,,,1.54,weatherlink.com 1.10,2013-01-31 04:55:00,